Location: Puketoi
(40.5833°S, 176.0167°E)
Time: 15:32:31
(UTC+00:00)

COSMOS 2455 - Visible Passes

Search period start: 27 September 2023 00:00
Search period end: 07 October 2023 00:00
Orbit: 901 x 908 km, 67.1° (Epoch: 27 September)

Date Brightness Start Highest point End Pass type
(mag) Time Alt. Az. Time Alt. Az. Time Alt. Az.
27 Sep 5.5 12:43:53 13° S 12:43:53 13° S 12:44:45 10° S visible
28 Sep 5.5 12:47:19 13° S 12:47:19 13° S 12:48:20 10° S visible
29 Sep 5.5 12:50:41 12° SSW 12:50:41 12° SSW 12:51:45 10° S visible
30 Sep 5.5 11:10:53 12° SSE 11:10:53 12° SSE 11:11:15 10° SSE visible
30 Sep 5.5 12:53:59 11° SSW 12:53:59 11° SSW 12:54:52 10° SSW visible
01 Oct 5.4 11:14:07 14° SSE 11:14:07 14° SSE 11:15:02 10° SSE visible
02 Oct 5.2 11:17:13 17° S 11:17:13 17° S 11:18:46 10° SSE visible
02 Oct 5.8 16:40:02 10° SSE 16:40:49 10° SSE 16:41:37 10° SE visible
03 Oct 5.3 09:37:07 10° SE 09:37:07 10° SE 09:37:09 10° SE visible
03 Oct 5.2 11:20:11 18° S 11:20:11 18° S 11:22:25 10° S visible
03 Oct 5.6 16:42:28 10° S 16:45:10 13° SE 16:47:52 10° ESE visible
04 Oct 4.9 09:39:51 17° SSE 09:39:51 17° SSE 09:41:08 10° SSE visible
04 Oct 5.2 11:22:53 18° SSW 11:22:53 18° SSW 11:26:00 10° S visible
04 Oct 5.5 16:45:44 10° S 16:49:28 16° SE 16:53:10 10° ESE visible
05 Oct 4.3 09:42:10 29° SSE 09:42:10 29° SSE 09:45:03 10° SSE visible
05 Oct 5.3 11:25:09 15° SW 11:26:00 15° SW 11:29:27 10° S visible
05 Oct 5.4 16:49:14 10° S 16:53:42 21° SE 16:58:08 10° E visible
06 Oct 4.5 08:00:35 16° ESE 08:00:35 16° ESE 08:02:10 10° SE visible
06 Oct 3.5 09:43:28 52° SW 09:43:28 52° SW 09:48:54 10° SSE visible
06 Oct 5.6 11:28:03 10° WSW 11:30:19 12° SW 11:32:35 10° SSW visible
06 Oct 5.1 16:52:49 10° S 16:57:52 26° SE 17:02:53 10° ENE visible
